COSMOS 2459 (731) (36400 NORAD) Tracking and Keplerian Element Data

This shows tracking and keplerian element data for the satellite.

Feedback or suggestion? Click here.




ElementValue
Catalog36400
NameCOSMOS 2459 (731)
Epoch Orbit6840
Epoch Day348.8217685
Epoch Year2018
RAAN46.3467
Inclination65.679
Eccentricity0.0025593
Argument of Perigee347.3351
Mean Anonmoly110.9629
Mean Motion2.13102215
Decay Rate-5.5E-07
L11 36400U 10007A 18348.82176850 -.00000055 00000-0 10000-3 0 9997
L22 36400 65.6790 46.3467 0025593 347.3351 110.9629 2.13102215 68401

Live tracking and technical data element details for COSMOS 2459 (731) (NORAD 36400). COSMOS 2459 (731) can be tracked NOW for your location showing map with azimuth and elevation plus other details from your city location.

Track the satellite on the map from your city or location and see movement details for azimuth, elevation, latitude, longitude, range, height, and movement on the map or in text.







IsCatalogInMostPopularTable: catalog: 36400, numindb: 51
Update: records affected: 1



GetName: 36400 COSMOS 2459 (731)

Hit Count: updated at: Sun, 16 Dec 2018 03:21:58 GMT